This demonstration page uses our WeatherBlox Daily Observations layout. Learn more.

Left ArrowRight Arrow

38.80484, -77.04692

Hourly Observations for August 19, 2021

Temp ( °F °C ) Dew Point ( °F °C ) Humidity (%) Winds ( mph kmh ) Pressure ( in mb ) Visibility ( mi km ) Precip ( " mm )
12:52 am 00:52 Mostly Cloudy 80 26.7 72 22.2 76 76 SW 8 13 30.03 1017 10 16 N/A
1:52 am 01:52 Mostly Cloudy 79 26.1 72 22.2 79 79 S 7 11 30.02 1017 10 16 N/A
2:52 am 02:52 Mostly Cloudy 78 25.6 72 22.2 82 82 SW 7 11 30.03 1017 10 16 N/A
3:52 am 03:52 Mostly Cloudy 78 25.6 72 22.2 82 82 SSW 7 11 30.03 1017 10 16 N/A
4:52 am 04:52 Partly Cloudy 77 25 72 22.2 85 85 SW 7 11 30.03 1017 10 16 N/A
5:52 am 05:52 Mostly Cloudy 76 24.4 71 21.7 85 85 S 8 13 30.03 1017 10 16 N/A
6:52 am 06:52 Mostly Cloudy 76 24.4 70 21.1 82 82 SSW 6 9 30.04 1017 10 16 N/A
7:52 am 07:52 Mostly Cloudy 79 26.1 69 20.6 72 72 WSW 6 9 30.04 1017 10 16 N/A
8:52 am 08:52 Mostly Cloudy 85 29.4 70 21.1 61 61 VRB 6 9 30.04 1017 10 16 N/A
9:52 am 09:52 Mostly Cloudy 86 30 69 20.6 57 57 WNW 9 15 30.03 1017 10 16 N/A
10:52 am 10:52 Partly Cloudy 88 31.1 69 20.6 54 54 W 10 17 30.03 1017 10 16 N/A
11:52 am 11:52 Partly Cloudy 88 31.1 69 20.6 54 54 WNW 12 19 30.02 1017 10 16 N/A
12:52 pm 12:52 Partly Cloudy 91 32.8 69 20.6 49 49 undefined N/A 30.01 1016 10 16 N/A
1:52 pm 13:52 Mostly Cloudy 91 32.8 69 20.6 49 49 W 13 20 30.00 1016 10 16 N/A
2:52 pm 14:52 Mostly Cloudy 89 31.7 69 20.6 52 52 WNW 9 15 29.98 1015 10 16 N/A
3:52 pm 15:52 Mostly Cloudy 90 32.2 70 21.1 52 52 N 8 13 29.97 1015 10 16 N/A
4:52 pm 16:52 Mostly Cloudy 89 31.7 70 21.1 53 53 NNE 5 7 29.95 1014 10 16 N/A
5:52 pm 17:52 Mostly Cloudy 88 31.1 68 20 52 52 NW 7 11 29.95 1014 10 16 N/A
6:52 pm 18:52 Mostly Cloudy 87 30.6 68 20 53 53 WSW 6 9 29.96 1014 10 16 N/A
7:52 pm 19:52 Mostly Cloudy with Light Rain 81 27.2 71 21.7 72 72 SSW 9 15 29.96 1015 10 16 0.00 0.00
8:52 pm 20:52 Mostly Cloudy 78 25.6 73 22.8 85 85 SW 6 9 29.97 1015 10 16 0.02 0.51
9:52 pm 21:52 Mostly Cloudy 78 25.6 73 22.8 85 85 SW 5 7 29.97 1015 10 16 N/A
10:52 pm 22:52 Cloudy 78 25.6 73 22.8 85 85 WNW 5 7 29.98 1015 10 16 N/A
11:52 pm 23:52 Cloudy 78 25.6 72 22.2 82 82 N N/A 29.97 1015 10 16 N/A

Powered by AerisWeather